Change the Weather History Date:

Saturday, March 2, 2013

  Actual Average (KGON) Record (KGON)
Temperature  
Mean Temperature 36 °F -  
Max Temperature 39 °F 43 °F 62 °F (1985)
Min Temperature 32 °F 27 °F 8 °F (1962)
Degree Days  
Heating Degree Days 30    
Moisture  
Dew Point 25 °F    
Average Humidity 61    
Maximum Humidity 75    
Minimum Humidity 55    
Precipitation  
Precipitation 0.00 in - - ()
Sea Level Pressure  
Sea Level Pressure 29.68 in    
Wind  
Wind Speed 5 mph (NW)    
Max Wind Speed 10 mph    
Max Gust Speed 17 mph    
Visibility 10 miles    
Events      
Averages and records for this station are not official NWS values.
T = Trace of Precipitation, MM = Missing Value Source: NWS Daily Summary

Daily Weather History Graph

Daily Weather History Graph

Search for Another Location

Airport or City:

Trip Planner

Search our weather history database for the weather conditions in past years. The results will help you decide how hot, cold, wet, or windy it might be!

Date:

Astronomy

Mar. 02, 2013 Rise Set
Actual Time 6:19 AM EST 5:39 PM EST
Civil Twilight 5:52 AM EST 6:07 PM EST
Nautical Twilight 5:20 AM EST 6:39 PM EST
Astronomical Twilight 4:48 AM EST 7:11 PM EST
Moon 11:19 PM EST (3/2) 8:41 AM EST (3/2)
Length of Visible Light 12h 14m
Length of Day
11h 19m
Waning Gibbous, 74% of the Moon is Illuminated
Mar 2
Waning Gibbous
Mar 4
Last Quarter
Mar 11
New
Mar 19
First Quarter
Mar 27
Full

Hourly Weather History & Observations

Time (EST) Temp. Windchill Dew Point Humidity Pressure Visibility Wind Dir Wind Speed Gust Speed Precip Events Conditions
12:53 AM 37.9 °F 33.5 °F 27.0 °F 65% 29.70 in 10.0 mi WNW 5.8 mph - N/A   Overcast
1:53 AM 37.0 °F 31.0 °F 26.1 °F 65% 29.70 in 10.0 mi NW 8.1 mph - N/A   Overcast
2:53 AM 36.0 °F 31.1 °F 24.1 °F 62% 29.69 in 10.0 mi NW 5.8 mph - N/A   Overcast
3:53 AM 35.1 °F 29.3 °F 23.0 °F 61% 29.70 in 10.0 mi NNW 6.9 mph - N/A   Overcast
4:53 AM 34.0 °F - 23.0 °F 64% 29.70 in 10.0 mi Calm Calm - N/A   Mostly Cloudy
5:53 AM 32.0 °F 28.7 °F 25.0 °F 75% 29.70 in 10.0 mi West 3.5 mph - N/A   Mostly Cloudy
6:53 AM 34.0 °F 29.8 °F 26.1 °F 73% 29.71 in 10.0 mi Variable 4.6 mph - N/A   Partly Cloudy
7:53 AM 36.0 °F 31.1 °F 25.0 °F 64% 29.72 in 10.0 mi NW 5.8 mph - N/A   Overcast
8:53 AM 37.0 °F 33.3 °F 25.0 °F 62% 29.71 in 10.0 mi NNW 4.6 mph - N/A   Overcast
9:53 AM 39.0 °F 32.3 °F 25.0 °F 57% 29.70 in 10.0 mi NNW 10.4 mph 17.3 mph N/A   Overcast
10:53 AM 37.9 °F 30.9 °F 24.1 °F 57% 29.70 in 10.0 mi NNW 10.4 mph - N/A   Overcast
11:53 AM 37.9 °F 33.5 °F 24.1 °F 57% 29.68 in 10.0 mi West 5.8 mph - N/A   Overcast
12:53 PM 37.9 °F 33.5 °F 24.1 °F 57% 29.68 in 10.0 mi Variable 5.8 mph - N/A   Overcast
1:53 PM 39.0 °F 34.8 °F 24.1 °F 55% 29.67 in 10.0 mi Variable 5.8 mph - N/A   Overcast
2:53 PM 39.0 °F 36.8 °F 24.1 °F 55% 29.66 in 10.0 mi Variable 3.5 mph - N/A   Overcast
3:53 PM 39.0 °F - 24.1 °F 55% 29.65 in 10.0 mi Calm Calm - N/A   Overcast
4:53 PM 39.0 °F 36.8 °F 24.1 °F 55% 29.65 in 10.0 mi NW 3.5 mph - N/A   Overcast
5:53 PM 39.0 °F - 24.1 °F 55% 29.67 in 10.0 mi Calm Calm - N/A   Overcast
6:53 PM 37.9 °F 35.5 °F 25.0 °F 60% 29.68 in 10.0 mi West 3.5 mph - N/A   Overcast
8:53 PM 37.0 °F - 25.0 °F 62% 29.68 in 10.0 mi Calm Calm - N/A   Overcast
9:53 PM 37.0 °F 32.4 °F 25.0 °F 62% 29.67 in 10.0 mi Variable 5.8 mph - N/A   Overcast
10:53 PM 36.0 °F 31.1 °F 26.1 °F 67% 29.66 in 10.0 mi NNW 5.8 mph - N/A   Overcast
11:53 PM 36.0 °F 29.0 °F 26.1 °F 67% 29.65 in 10.0 mi NNW 9.2 mph - N/A   Overcast